Location: Tel Aviv
(32.0670°N, 34.7670°E)
Time: 23:36:41
(UTC+02:00)

CUTE-I - Pass Details

Date: 24 December 2025
Orbit: 805 x 817 km, 98.7° (Epoch: 13 January)

Event Time Altitude Azimuth Distance (km) Brightness Sun altitude
Rises 18:12:04 0° 197° (SSW) 3,304 ? -18.5°
Reaches altitude 10° 18:14:48 10° 210° (SSW) 2,379 ? -19.0°
Maximum altitude 18:19:00 24° 264° (W) 1,612 ? -19.9°
Drops below altitude 10° 18:23:14 10° 317° (NW) 2,395 ? -20.8°
Sets 18:26:02 0° 331° (NNW) 3,333 ? -21.3°
